Home > Weather > Glasgow > Past weeks

Flag for United Kingdom Past Weather in Glasgow, Scotland, United Kingdom — Yesterday and Last 2 Weeks

Now
57 °F

Partly sunny.


Feels Like: 54 °F
Forecast: 46 / 57 °F
Wind: 14 mph from Southwest

Location: Glasgow Airport

Current Time: Jun 30, 2016 at 11:38:33 AM

Latest Report: Jun 30, 2016 at 11:20 AM


Visibility: N/A

Pressure: 29.62 "Hg

Humidity: 77%

Dew Point: 50 °F

Location of GlasgowLocation

Past Weather in Glasgow — Graph

°F

Glasgow Temperature Yesterday

Maximum temperature yesterday: 59 °F (at 10:20 AM)
Minimum temperature yesterday: 48 °F (at 3:50 AM)
Average temperature yesterday: 55 °F

High & Low Weather Summary for the Past Weeks

 TemperatureHumidityPressure
High68 °F (Jun 23, 11:50 AM)100% (Jun 16, 5:20 AM)30.15 "Hg (Jun 16, 5:20 AM)
Low41 °F (Jun 18, 4:20 AM)49% (Jun 23, 12:50 PM)29.47 "Hg (Jun 15, 10:20 AM)
Average57 °F80%29.86 "Hg
* Reported Jun 15 10:20 AM — Jun 30 10:20 AM, Glasgow, Weather by CustomWeather, © 2016

Note: Actual official high and low records may vary slightly from our data, if they occured in-between our weather recording intervals... More about our weather records

Advertising

Glasgow Weather History for the Previous 24 Hours

Scroll right to see more
 ConditionsComfort  
Time TempWeatherWind HumidityBarometerVisibility
10:20 AM
Thu, Jun 30
54 °FScattered showers. Broken clouds.12 mph88%29.62 "HgN/A
9:50 AM55 °FLight rain. Scattered clouds.12 mph88%29.62 "HgN/A
9:20 AM54 °FBroken clouds.12 mph88%29.62 "HgN/A
8:50 AM54 °FLight rain. Partly sunny.14 mph88%29.62 "HgN/A
8:20 AM52 °FLight rain. Partly sunny.12 mph94%29.62 "Hg4 mi
7:50 AM54 °FPartly sunny.10 mph82%29.59 "HgN/A
7:20 AM54 °FLight rain. Partly sunny.12 mph82%29.59 "HgN/A
6:50 AM54 °FMore clouds than sun.12 mph82%29.59 "HgN/A
6:20 AM54 °FLight rain. Partly sunny.10 mph88%29.59 "HgN/A
5:50 AM52 °FPartly sunny.9 mph88%29.59 "HgN/A
5:20 AM54 °FPartly cloudy.12 mph88%29.59 "HgN/A
4:50 AM54 °FPassing clouds.10 mph88%29.59 "HgN/A
4:20 AM52 °FMostly cloudy.10 mph94%29.59 "HgN/A
3:50 AM52 °FLight rain. Passing clouds.8 mph88%29.59 "HgN/A
3:20 AM54 °FPassing clouds.8 mph82%29.59 "HgN/A
2:50 AM54 °FPassing clouds.10 mph82%29.59 "HgN/A
2:20 AM54 °FCool.9 mph82%29.59 "HgN/A
1:50 AM52 °FPassing clouds.5 mph88%29.59 "HgN/A
1:20 AM52 °FPassing clouds.8 mph88%29.59 "HgN/A
12:50 AM52 °FPassing clouds.6 mph88%29.59 "HgN/A
12:20 AM52 °FCool.8 mph82%29.59 "HgN/A
11:50 PM
Wed, Jun 29
52 °FCool.6 mph82%29.56 "HgN/A
11:20 PM52 °FCool.6 mph82%29.56 "HgN/A
10:50 PM52 °FCool.6 mph88%29.56 "HgN/A
10:20 PM54 °FPartly sunny.5 mph77%29.56 "HgN/A
9:50 PM55 °FPartly sunny.6 mph72%29.56 "HgN/A
9:20 PM55 °FCool.8 mph72%29.56 "HgN/A
8:50 PM55 °FPassing clouds.9 mph67%29.53 "HgN/A
8:20 PM55 °FPartly sunny.8 mph72%29.53 "HgN/A
7:50 PM57 °FPartly sunny.5 mph67%29.53 "HgN/A
7:20 PM57 °FPartly sunny.5 mph72%29.53 "HgN/A
6:50 PM57 °FScattered clouds.8 mph72%29.50 "HgN/A
6:20 PM59 °FPartly sunny.9 mph72%29.50 "HgN/A
5:50 PM59 °FBroken clouds.9 mph72%29.50 "HgN/A
5:20 PM57 °FPartly sunny.9 mph72%29.50 "HgN/A
4:50 PM59 °FOvercast.7 mph68%29.50 "HgN/A
4:20 PM57 °FLight rain. Broken clouds.7 mph77%29.50 "HgN/A
3:50 PM59 °FPartly sunny.7 mph72%29.50 "HgN/A
3:20 PM59 °FPassing clouds.8 mph77%29.50 "HgN/A
2:50 PM57 °FLight rain. More clouds than sun.10 mph77%29.53 "HgN/A
2:20 PM57 °FScattered clouds.10 mph77%29.53 "HgN/A
1:50 PM55 °FLight rain. Overcast.12 mph82%29.53 "HgN/A
1:20 PM55 °FLight rain. Passing clouds.12 mph82%29.53 "HgN/A
12:50 PM55 °FLight rain. More clouds than sun.15 mph77%29.50 "HgN/A
12:20 PM59 °FPartly sunny.6 mph72%29.50 "HgN/A
11:50 AM59 °FScattered clouds.6 mph72%29.50 "HgN/A
11:20 AM59 °FPartly sunny.7 mph68%29.53 "HgN/A
Weather by CustomWeather, © 2016

See weather overviewHow to use our weather pages